Regional Weather Roundup
Issued by NWS

Home | Current Version | Previous Version | Graphics & Text | Print | Product List | Glossary On
Versions: 1 2 3 4 5 6 7 8 9 10 11 12 13 14 15 16 17 18 19 20 21 22 23 24 25 26 27 28 29 30 31 32 33 34 35 36 37 38 39 40 41 42 43 44 45 46 47 48 49 50
804
ASUS43 KMKX 290521
RWRWI

WISCONSIN REGIONAL WEATHER ROUNDUP
NATIONAL WEATHER SERVICE MILWAUKEE/SULLIVAN WI
1200 AM CDT SAT APR 29 2017

NOTE: "FAIR" INDICATES FEW OR NO CLOUDS BELOW 12,000 FEET WITH NO
SIGNIFICANT WEATHER AND/OR OBSTRUCTIONS TO VISIBILITY.

WIZ001-002-006>008-014>016-023>028-290600-
NORTHWEST WISCONSIN

CITY           SKY/WX    TMP DP  RH WIND       PRES   REMARKS
SUPERIOR ARPT  CLEAR     35  29  79 E3        30.18R
ASHLAND        CLEAR     30  27  88 CALM      30.17S
HAYWARD        CLEAR     32  26  78 N6        30.14R WCI  26
SIREN          PTCLDY    40  26  56 NE9       30.15R WCI  34
CUMBERLAND     CLEAR     37  27  65 N8        30.12R WCI  31
RICE LAKE      PTCLDY    38  30  72 N7        30.12R WCI  33
CHETEK         CLEAR     34  32  93 CALM      30.10R
LADYSMITH      PTCLDY    37  30  77 NE8       30.13R WCI  31
EAU CLAIRE     CLEAR     34  30  85 CALM      30.09R
MENOMONIE      CLEAR     39  32  76 CALM      30.10R
NEW RICHMOND   CLEAR     34  30  84 CALM      30.11R
OSCEOLA        CLEAR     34  32  91 CALM      30.17R
$$

WIZ003>005-009-010-017-018-290600-
NORTH CENTRAL WISCONSIN

CITY           SKY/WX    TMP DP  RH WIND       PRES   REMARKS
MANITOWISH WTR CLEAR     30  28  92 N3        30.11
ARBOR VITAE    CLEAR     32  28  84 CALM      30.11R
WOODRUFF       CLEAR     32  28  84 CALM      30.11R
RHINELANDER    CLEAR     33  27  78 N3        30.11R
EAGLE RIVER    CLEAR     30  24  79 N3        30.10S
LAND O LAKES   PTCLDY    30  27  89 CALM      30.12S
PHILLIPS       CLEAR     32  26  79 NE6       30.12R WCI  26
TOMAHAWK       CLEAR     32  27  82 N5        30.11R WCI  28
MEDFORD        CLEAR     33  29  87 N3        30.08R
MERRILL        CLEAR     32  29  90 N8        30.09R WCI  25
$$

WIZ029-030-035-036-043>047-290600-
CENTRAL WISCONSIN

CITY           SKY/WX    TMP DP  RH WIND       PRES   REMARKS
WAUSAU         CLOUDY    36  29  75 CALM      30.07S
MOSINEE        CLOUDY    36  30  80 NE5       30.09R WCI  32
MARSHFIELD     CLOUDY    39  29  67 NE3       30.07R
STEVENS POINT  MOCLDY    37  29  74 CALM      30.09S
WAUPACA        CLOUDY    46  32  56 N8        30.09R
WAUTOMA        CLOUDY    45  34  65 MISG      30.09R
WISC RAPIDS    CLOUDY    43  31  62 E7        30.10R
CAMP DOUGLAS   CLOUDY    44  34  69 N5        30.08R
$$

WIZ011>013-019>022-031-037>040-048>050-290600-
NORTHEAST WISCONSIN

CITY           SKY/WX    TMP DP  RH WIND       PRES   REMARKS
ANTIGO         CLEAR     31  29  92 N8        30.08R WCI  24
SHAWANO        CLOUDY    43  32  65 N6        30.09S
OCONTO         CLOUDY    42  29  60 N5        30.10R
STURGEON BAY   CLOUDY    42  32  67 N10       30.09R
GREEN BAY      CLOUDY    45  33  63 N15       30.08R
MANITOWOC      CLOUDY    43  39  86 N7        30.08R
APPLETON       CLOUDY    43  30  61 N12       30.06R
CLINTONVILLE   CLOUDY    43  30  61 N6        30.09R
OSHKOSH        CLOUDY    46  36  68 N10       30.06R
$$

WIZ032>034-041-042-053>061-290600-
SOUTHWEST WISCONSIN

CITY           SKY/WX    TMP DP  RH WIND       PRES   REMARKS
LA CROSSE      MOCLDY    42  34  73 N5        30.09R
SPARTA         PTCLDY    38  36  90 CALM      30.10R
VIROQUA        CLOUDY    41  35  78 N3        30.07R
BOSCOBEL       CLOUDY    45  40  82 CALM      30.08R
PRAIRIE DU CHI CLOUDY    43  40  89 CALM      30.08R
PLATTEVILLE    CLOUDY    45  42  90 NE8       30.05S
$$

WIZ056-057-062-063-064-067-068-290600-
SOUTH CENTRAL WISCONSIN

CITY           SKY/WX    TMP DP  RH WIND       PRES   REMARKS
REEDSBURG      CLOUDY    43  40  86 CALM      30.06R
BARABOO/DELLS  CLOUDY    43  38  83 CALM      30.07R
LONE ROCK      CLOUDY    45  40  82 E3        30.07R
MINERAL POINT  CLOUDY    45  41  87 NE6       30.05R
MADISON        CLOUDY    45  40  82 N5        30.06R
MIDDLETON      CLOUDY    46  41  84 N3        30.07R
WATERTOWN      CLOUDY    45  44  98 N3        30.05R
MONROE         CLOUDY    43  41  93 N12       30.04R
JANESVILLE     CLOUDY    46  45  93 NE7       30.03R
$$

WIZ051-052-058>065-066-070>072-290600-
SOUTHEAST WISCONSIN

CITY           SKY/WX    TMP DP  RH WIND       PRES   REMARKS
MILWAUKEE      CLOUDY    45  42  89 N5        30.05R
WAUKESHA       CLOUDY    43  41  93 N6        30.06R
MILWAUKEE/TIMM CLOUDY    43  39  87 N5        30.05S
RACINE         CLOUDY    42  39  89 N10       30.06R FOG
KENOSHA        CLOUDY    44  41  89 NE6       30.05R
FOND DU LAC    CLOUDY    47  36  65 N7        30.06R
SHEBOYGAN      CLOUDY    43  41  93 N3        30.05R FOG
WEST BEND      CLOUDY    43  43 100 N3        30.05R
JUNEAU         CLOUDY    44  40  86 NW3       30.07R
$$

LSZ147-162-290600-
LAKE SUPERIOR

STATION/POSITION TIME  TEMP    WIND        PRES    WAVE
                       AIR SEA DIR/SP/G            HT/PER
                 (UTC) (F)     (DEG/KT/KT) (MB)    (FT/S)
DEVILS ISLAND    0500   38     310/  6/  7 1022.4R
PORT WING        0440   31     160/  3/  3 1021.7S
SAXON HARBOR     0440   30     180/  3/  3 1021.0S
$$

LMZ867-665-643>646-290600-
LAKE MICHIGAN

STATION/POSITION TIME  TEMP    WIND        PRES    WAVE
                       AIR SEA DIR/SP/G            HT/PER
                 (UTC) (F)     (DEG/KT/KT) (MB)    (FT/S)
CHAMBERS ISLAND  0440   41     310/  4/  5 1018.6R
N MID LAKE BUOY  0450   38 37   50/  2/  4 1020.1R   1/ 5
NORTHPORT PIER   0430   40     340/  6/  7 1018.6S
KEWAUNEE LAKESHO 0454   43     360/  5/  7 1018.2R
SHEBOYGAN LAKESH 0500   41     350/  7/  9 1018.1R
PORT WASHINGTON  0440   44     320/  3/  5 1018.3R
MILWAUKEE LAKESH 0500   44     340/  4/  5   N/A
S MID LAKE BUOY  0450   42 41   20/ 16/ 17 1017.2R   2/ 3
KENOSHA   LAKESH 0500   43      20/ 12/ 14 1017.3
$$

TC  - TEMPERATURE IN CELSIUS
VSB - VISIBILITY IN STATUTE MILES
WCI - WIND CHILL INDEX
HX  - HEAT INDEX





USA.gov is the U.S. government's official web portal to all federal, state and local government web resources and services.